�N����,����,�~����,�C��,���x,�C��,����,���ϕ���,�ő�u�ԕ���,�ő厞����,���˗�,�I�_���x,�n�����x,�ő啗���N��,DTYPE
"20/03/30","00:10",0.0,4.9,91.7,1014.7,287.4,1.3,2.8,306.3,0.00,3.7,10.5,"00:08:06",1
"20/03/30","00:20",0.0,5.1,91.7,1014.7,308.9,2.1,4.7,332.1,0.00,3.9,10.5,"00:17:28",1
"20/03/30","00:30",0.0,5.3,91.6,1014.7,302.8,2.6,3.9,320.6,0.00,4.1,10.5,"00:22:08",1
"20/03/30","00:40",0.0,5.4,91.4,1014.5,306.7,1.5,2.6,308.1,0.00,4.2,10.3,"00:34:56",1
"20/03/30","00:50",0.0,5.3,91.4,1014.5,256.5,1.2,2.2,248.7,0.00,4.1,10.6,"00:47:10",1
"20/03/30","01:00",0.0,5.4,91.3,1014.9,279.3,1.8,2.7,305.9,0.00,4.1,10.4,"00:58:00",1
"20/03/30","01:10",0.0,5.6,91.1,1014.7,278.8,2.0,3.1,262.7,0.00,4.3,10.4,"01:04:10",1
"20/03/30","01:20",0.0,5.6,90.8,1014.9,277.4,1.7,2.5,267.7,0.00,4.3,10.5,"01:11:00",1
"20/03/30","01:30",0.0,5.6,90.6,1015.2,290.7,2.2,3.3,311.2,0.00,4.2,10.4,"01:23:54",1
"20/03/30","01:40",0.0,5.7,90.4,1014.7,284.7,2.1,2.9,290.3,0.00,4.3,10.3,"01:33:12",1
"20/03/30","01:50",0.0,5.7,90.0,1014.9,308.0,2.7,3.6,329.7,0.00,4.2,10.3,"01:48:40",1
"20/03/30","02:00",0.0,5.7,89.7,1014.9,314.3,3.0,5.4,325.5,0.00,4.2,10.3,"01:52:16",1
"20/03/30","02:10",0.0,5.5,89.7,1014.9,300.1,2.3,3.1,321.1,0.00,4.0,10.2,"02:06:40",1
"20/03/30","02:20",0.0,5.3,89.7,1014.9,289.3,2.2,2.7,311.3,0.00,3.8,10.4,"02:15:52",1
"20/03/30","02:30",0.0,5.4,89.8,1014.7,321.3,2.6,3.5,317.7,0.00,3.9,10.3,"02:22:16",1
"20/03/30","02:40",0.0,5.5,89.8,1014.9,327.2,2.0,3.6,323.7,0.00,4.0,10.2,"02:38:24",1
"20/03/30","02:50",0.0,5.5,89.7,1015.2,278.2,1.8,3.2,258.5,0.00,4.0,10.3,"02:48:08",1
"20/03/30","03:00",0.0,5.5,89.7,1014.7,272.0,1.6,2.6,262.7,0.00,4.0,10.1,"02:50:08",1
"20/03/30","03:10",0.0,5.5,89.6,1015.2,289.5,2.0,3.4,321.5,0.00,4.0,10.2,"03:05:44",1
"20/03/30","03:20",0.0,5.5,89.5,1015.2,308.5,2.3,4.2,320.7,0.00,4.0,10.2,"03:16:24",1
"20/03/30","03:30",0.0,5.5,89.4,1015.2,341.3,1.5,3.7,336.0,0.00,3.9,10.2,"03:28:52",1
"20/03/30","03:40",0.0,5.4,89.4,1014.7,326.1,3.0,4.5,334.8,0.00,3.8,10.2,"03:31:44",1
"20/03/30","03:50",0.0,5.3,89.5,1014.9,321.2,2.8,4.0,317.3,0.00,3.8,10.1,"03:44:08",1
"20/03/30","04:00",0.0,5.3,89.5,1014.7,282.7,2.2,3.7,320.8,0.00,3.8,10.2,"03:51:04",1
"20/03/30","04:10",0.0,5.2,89.7,1014.5,298.4,2.0,2.9,319.3,0.00,3.7,10.1,"04:08:32",1
"20/03/30","04:20",0.0,5.3,89.9,1014.5,318.8,2.1,3.6,337.3,0.00,3.8,10.2,"04:15:44",1
"20/03/30","04:30",0.0,5.4,89.9,1014.5,324.1,2.6,3.9,327.1,0.00,3.9,10.1,"04:25:12",1
"20/03/30","04:40",0.0,5.3,90.0,1014.5,298.6,1.8,2.5,307.7,0.00,3.8,10.0,"04:38:24",1
"20/03/30","04:50",0.0,5.4,90.2,1014.7,290.6,2.2,2.6,306.2,0.00,4.0,10.1,"04:42:48",1
"20/03/30","05:00",0.0,5.5,90.3,1014.7,272.2,2.1,2.9,267.1,0.00,4.1,10.0,"04:51:52",1
"20/03/30","05:10",0.0,5.7,90.4,1014.7,261.0,1.5,1.9,283.5,0.00,4.3,10.2,"05:00:24",1
"20/03/30","05:20",0.0,5.7,90.4,1014.9,268.2,1.5,1.9,273.1,0.00,4.3,10.0,"05:13:28",1
"20/03/30","05:30",0.0,5.8,90.4,1014.7,257.5,1.2,1.8,247.6,0.00,4.4,9.7,"05:29:46",1
"20/03/30","05:40",0.0,5.8,90.4,1014.9,280.0,2.3,3.3,298.7,0.00,4.4,10.1,"05:34:56",1
"20/03/30","05:50",0.0,5.8,90.4,1015.4,303.6,2.1,2.6,298.2,0.00,4.4,10.0,"05:40:56",1
"20/03/30","06:00",0.0,5.8,90.4,1015.2,309.7,2.6,4.7,326.6,0.00,4.4,10.1,"05:51:12",1
"20/03/30","06:10",0.0,5.8,90.4,1015.4,312.9,2.7,3.7,321.9,0.00,4.4,9.9,"06:08:48",1
"20/03/30","06:20",0.0,5.8,90.4,1015.9,304.0,1.7,3.1,324.0,0.00,4.4,9.9,"06:10:32",1
"20/03/30","06:30",0.0,5.8,90.5,1015.9,300.1,1.5,2.5,321.3,0.00,4.4,9.9,"06:21:28",1
"20/03/30","06:40",0.0,6.0,90.5,1015.6,307.0,2.3,3.6,331.5,0.00,4.6,10.1,"06:38:56",1
"20/03/30","06:50",0.0,6.0,90.6,1016.4,284.4,1.6,2.4,277.5,0.00,4.6,10.1,"06:49:28",1
"20/03/30","07:00",0.0,6.2,90.6,1016.1,298.4,2.0,3.1,322.5,0.00,4.8,10.0,"06:52:00",1
"20/03/30","07:10",0.0,6.2,90.6,1016.1,288.4,1.8,2.9,322.4,0.00,4.8,10.1,"07:01:12",1
"20/03/30","07:20",0.0,6.3,90.6,1015.9,295.5,2.1,2.8,323.5,0.00,4.9,10.0,"07:18:26",1
"20/03/30","07:30",0.0,6.5,90.6,1016.1,314.7,2.5,3.2,316.3,0.01,5.1,10.1,"07:27:28",1
"20/03/30","07:40",0.0,6.7,90.6,1016.6,322.1,2.7,3.9,322.5,0.02,5.3,10.2,"07:33:04",1
"20/03/30","07:50",0.0,6.8,90.4,1016.6,314.3,3.1,4.5,321.9,0.03,5.4,10.1,"07:45:04",1
"20/03/30","08:00",0.0,7.1,90.1,1016.6,305.8,2.2,3.5,315.2,0.04,5.6,10.0,"07:58:56",1
"20/03/30","08:10",0.0,7.2,89.8,1016.8,317.7,3.0,4.0,319.7,0.04,5.7,10.2,"08:02:00",1
"20/03/30","08:20",0.0,7.3,89.2,1017.1,321.6,3.4,5.6,335.0,0.06,5.7,10.2,"08:18:40",1
"20/03/30","08:30",0.0,7.5,88.6,1017.3,320.7,3.4,4.5,326.8,0.06,5.8,10.2,"08:28:16",1
"20/03/30","08:40",0.0,7.8,87.8,1017.1,324.2,3.6,4.7,329.9,0.07,5.9,10.3,"08:36:08",1
"20/03/30","08:50",0.0,7.9,87.0,1017.1,320.3,3.5,4.8,322.2,0.07,5.9,10.4,"08:41:12",1
"20/03/30","09:00",0.0,8.0,86.1,1017.3,314.0,2.2,3.3,327.1,0.05,5.9,10.3,"08:50:02",1
"20/03/30","09:10",0.0,8.1,85.5,1017.5,310.7,2.2,2.9,311.5,0.03,5.9,10.3,"09:07:28",1
"20/03/30","09:20",0.0,8.1,84.9,1017.5,310.1,1.8,2.9,318.5,0.03,5.8,10.3,"09:12:00",1
"20/03/30","09:30",0.0,8.2,84.4,1017.8,300.3,1.8,2.9,319.1,0.03,5.8,10.6,"09:29:12",1
"20/03/30","09:40",0.0,8.3,83.9,1018.0,285.0,1.6,2.1,273.4,0.04,5.8,10.4,"09:30:32",1
"20/03/30","09:50",0.0,8.5,83.5,1017.8,295.6,1.6,2.4,301.8,0.06,5.9,10.5,"09:40:24",1
"20/03/30","10:00",0.0,8.8,82.6,1017.5,305.6,1.6,2.5,322.7,0.08,6.0,10.7,"09:52:00",1
"20/03/30","10:10",0.0,9.2,81.7,1017.8,309.7,1.8,3.2,328.3,0.14,6.3,10.5,"10:02:32",1
"20/03/30","10:20",0.0,9.6,79.9,1017.8,314.7,1.7,2.9,316.4,0.22,6.3,10.7,"10:11:12",1
"20/03/30","10:30",0.0,10.2,77.6,1018.0,299.3,0.7,1.8,329.5,0.23,6.5,10.8,"10:22:56",1
"20/03/30","10:40",0.0,10.3,75.6,1017.8,269.7,1.0,2.0,245.6,0.23,6.2,10.8,"10:36:56",1
"20/03/30","10:50",0.0,10.4,73.8,1017.5,247.8,1.2,2.2,205.1,0.27,6.0,10.9,"10:48:00",1
"20/03/30","11:00",0.0,10.7,72.6,1017.8,257.7,1.1,1.9,232.7,0.26,6.0,11.2,"10:52:24",1
"20/03/30","11:10",0.0,10.9,71.2,1017.8,238.1,1.2,2.4,221.5,0.27,5.9,11.2,"11:02:56",1
"20/03/30","11:20",0.0,10.9,70.8,1017.8,233.6,1.5,2.9,237.1,0.24,5.9,11.3,"11:14:56",1
"20/03/30","11:30",0.0,11.1,69.4,1017.5,204.9,1.0,2.6,112.1,0.26,5.8,11.6,"11:20:24",1
"20/03/30","11:40",0.0,11.3,68.7,1017.3,247.0,0.8,1.7,120.5,0.21,5.8,11.4,"11:33:36",1
"20/03/30","11:50",0.0,11.8,68.6,1017.3,240.6,1.0,2.7,238.6,0.30,6.3,11.5,"11:45:52",1
"20/03/30","12:00",0.0,11.6,66.9,1017.1,219.3,1.3,2.5,197.8,0.27,5.7,11.8,"11:51:20",1
"20/03/30","12:10",0.0,11.7,67.3,1017.3,211.0,1.3,2.9,231.6,0.25,5.9,11.9,"12:07:44",1
"20/03/30","12:20",0.0,11.6,66.3,1016.8,197.4,1.3,2.6,207.5,0.24,5.6,12.0,"12:12:40",1
"20/03/30","12:30",0.0,11.8,65.2,1016.8,202.9,1.1,2.6,203.2,0.24,5.5,12.0,"12:24:32",1
"20/03/30","12:40",0.0,12.1,63.6,1016.1,16.8,1.2,2.1,139.1,0.29,5.5,12.2,"12:30:56",1
"20/03/30","12:50",0.0,12.6,62.6,1015.9,218.2,0.8,2.4,244.1,0.28,5.7,12.2,"12:40:02",1
"20/03/30","13:00",0.0,12.9,63.1,1015.9,187.1,1.1,2.7,112.9,0.36,6.1,12.4,"12:55:52",1
"20/03/30","13:10",0.0,13.3,61.1,1015.9,250.1,0.8,2.4,110.3,0.45,6.0,12.5,"13:00:16",1
"20/03/30","13:20",0.0,13.6,60.0,1015.9,169.2,1.1,2.5,185.5,0.36,6.0,12.7,"13:19:36",1
"20/03/30","13:30",0.0,14.0,60.1,1015.2,212.3,1.2,2.8,207.2,0.45,6.4,13.0,"13:20:24",1
"20/03/30","13:40",0.0,14.4,57.7,1015.2,256.7,1.1,2.6,196.7,0.49,6.2,13.0,"13:30:16",1
"20/03/30","13:50",0.0,14.2,57.0,1014.9,179.1,1.5,4.7,134.9,0.34,5.9,13.2,"13:46:40",1
"20/03/30","14:00",0.0,13.6,57.9,1014.9,198.2,1.5,3.1,226.3,0.22,5.5,13.2,"13:52:56",1
"20/03/30","14:10",0.0,13.8,58.7,1015.2,187.9,1.2,2.9,123.4,0.20,5.9,13.4,"14:09:44",1
"20/03/30","14:20",0.0,13.8,58.9,1015.2,187.8,1.1,2.7,189.1,0.17,5.9,13.3,"14:17:44",1
"20/03/30","14:30",0.0,13.6,59.0,1014.7,182.6,1.3,2.9,208.6,0.17,5.8,13.5,"14:27:28",1
"20/03/30","14:40",0.0,13.4,59.9,1014.9,204.7,1.5,2.5,175.2,0.16,5.8,13.4,"14:31:20",1
"20/03/30","14:50",0.0,13.3,61.9,1014.7,206.4,2.1,3.6,189.8,0.17,6.2,13.5,"14:46:08",1
"20/03/30","15:00",0.0,13.2,62.8,1014.7,208.6,2.0,4.4,223.6,0.15,6.3,13.5,"14:55:20",1
"20/03/30","15:10",0.0,13.5,63.0,1014.2,192.8,1.3,3.1,127.9,0.17,6.6,13.2,"15:08:00",1
"20/03/30","15:20",0.0,13.9,62.9,1014.7,203.6,1.2,2.4,200.9,0.20,7.0,13.6,"15:13:12",1
"20/03/30","15:30",0.0,14.0,62.4,1014.7,192.3,1.3,2.7,224.8,0.20,7.0,13.5,"15:28:40",1
"20/03/30","15:40",0.0,13.8,63.3,1014.5,207.6,1.7,4.2,226.7,0.20,7.0,13.3,"15:35:52",1
"20/03/30","15:50",0.0,13.8,63.6,1014.5,205.1,1.3,2.7,201.3,0.15,7.1,13.5,"15:43:04",1
"20/03/30","16:00",0.0,13.7,64.0,1014.5,207.4,1.2,3.1,192.3,0.14,7.1,13.6,"15:50:24",1
"20/03/30","16:10",0.0,13.8,63.4,1014.5,255.0,1.0,2.9,211.0,0.12,7.0,13.7,"16:08:56",1
"20/03/30","16:20",0.0,13.9,64.3,1014.5,239.8,1.3,3.4,118.9,0.09,7.3,13.4,"16:19:04",1
"20/03/30","16:30",0.0,13.9,65.0,1014.5,207.1,0.7,1.6,139.2,0.11,7.5,13.6,"16:21:20",1
"20/03/30","16:40",0.0,13.8,63.9,1014.5,193.6,0.7,1.9,99.7,0.09,7.1,13.4,"16:35:12",1
"20/03/30","16:50",0.0,13.7,63.9,1014.7,158.0,0.8,1.8,146.4,0.09,7.0,13.3,"16:43:52",1
"20/03/30","17:00",0.0,13.8,63.2,1014.9,316.0,0.5,1.1,136.1,0.09,7.0,13.5,"16:55:44",1
"20/03/30","17:10",0.0,14.0,62.9,1014.2,285.2,0.7,1.4,315.8,0.07,7.1,13.6,"17:03:28",1
"20/03/30","17:20",0.0,14.0,62.5,1014.7,247.9,0.3,1.0,269.5,0.07,7.0,13.6,"17:13:12",1
"20/03/30","17:30",0.0,13.9,62.1,1014.9,236.7,0.5,1.0,308.9,0.05,6.8,13.5,"17:20:16",1
"20/03/30","17:40",0.0,13.7,62.5,1014.5,226.5,0.7,1.8,237.9,0.06,6.7,13.4,"17:37:28",1
"20/03/30","17:50",0.0,13.7,63.5,1014.9,258.1,1.0,1.7,247.2,0.03,6.9,13.5,"17:48:24",1
"20/03/30","18:00",0.0,13.4,64.4,1014.9,234.3,1.0,2.0,246.3,0.02,6.9,13.5,"17:52:00",1
"20/03/30","18:10",0.0,13.3,64.5,1015.2,242.7,0.6,1.1,214.7,0.02,6.8,13.5,"18:00:08",1
"20/03/30","18:20",0.0,13.3,64.5,1014.9,279.8,0.6,0.9,327.3,0.01,6.8,13.3,"18:16:16",1
"20/03/30","18:30",0.0,13.3,65.4,1015.2,199.5,0.6,2.6,132.0,0.00,7.0,13.3,"18:28:08",1
"20/03/30","18:40",0.0,13.1,66.7,1014.9,124.6,0.8,2.4,119.9,0.00,7.1,13.2,"18:34:24",1
"20/03/30","18:50",0.0,12.8,68.0,1015.2,118.8,0.8,1.9,131.7,0.00,7.1,13.1,"18:46:58",1
"20/03/30","19:00",0.0,12.6,68.7,1014.9,106.0,0.5,1.7,113.6,0.00,7.0,13.1,"18:55:54",1
"20/03/30","19:10",0.0,12.5,69.5,1015.2,73.6,0.6,1.2,111.9,0.00,7.1,13.2,"19:07:12",1
"20/03/30","19:20",0.0,12.3,70.1,1015.4,48.4,0.6,1.4,116.0,0.00,7.1,13.1,"19:11:34",1
"20/03/30","19:30",0.0,12.1,70.5,1015.2,341.0,0.8,1.6,321.3,0.00,6.9,12.8,"19:29:22",1
"20/03/30","19:40",0.0,11.9,71.1,1015.2,323.9,1.0,1.7,317.7,0.00,6.9,13.0,"19:36:32",1
"20/03/30","19:50",0.0,11.7,71.7,1015.2,327.6,1.1,1.8,321.4,0.00,6.8,12.7,"19:43:54",1
"20/03/30","20:00",0.0,11.5,72.1,1015.4,306.2,1.2,1.8,310.1,0.00,6.7,12.7,"19:57:22",1
"20/03/30","20:10",0.0,11.4,72.9,1015.6,287.4,1.3,1.7,277.9,0.00,6.8,12.8,"20:09:20",1
"20/03/30","20:20",0.0,11.3,74.0,1015.6,291.5,1.3,1.9,320.8,0.00,6.9,12.6,"20:19:48",1
"20/03/30","20:30",0.0,11.0,75.0,1015.4,285.2,1.2,1.4,291.6,0.00,6.8,12.6,"20:21:48",1
"20/03/30","20:40",0.0,10.9,76.1,1015.6,285.5,1.2,1.8,269.7,0.00,6.9,12.6,"20:36:58",1
"20/03/30","20:50",0.0,10.8,77.2,1015.4,285.5,1.2,1.7,275.6,0.00,7.0,12.7,"20:48:36",1
"20/03/30","21:00",0.0,10.7,78.1,1015.6,301.7,1.1,1.7,323.4,0.00,7.1,12.5,"20:58:54",1
"20/03/30","21:10",0.0,10.7,79.4,1015.9,311.1,1.3,1.7,313.4,0.00,7.3,12.4,"21:03:28",1
"20/03/30","21:20",0.0,10.6,80.5,1015.6,323.2,1.5,1.7,311.6,0.00,7.4,12.7,"21:18:00",1
"20/03/30","21:30",0.0,10.5,81.5,1015.9,311.7,1.3,1.8,318.6,0.00,7.5,12.5,"21:28:02",1
"20/03/30","21:40",0.0,10.4,82.2,1016.1,297.1,1.2,1.6,322.4,0.00,7.5,12.2,"21:30:56",1
"20/03/30","21:50",0.0,10.4,82.9,1015.6,315.0,1.7,2.5,322.4,0.00,7.7,12.5,"21:42:16",1
"20/03/30","22:00",0.0,10.4,83.4,1015.9,319.6,1.8,2.6,333.9,0.00,7.8,12.3,"21:58:56",1
"20/03/30","22:10",0.0,10.4,83.7,1015.9,319.4,1.6,2.8,329.1,0.00,7.8,12.3,"22:00:16",1
"20/03/30","22:20",0.0,10.3,84.0,1015.4,310.1,1.6,2.9,333.0,0.00,7.8,12.4,"22:14:24",1
"20/03/30","22:30",0.0,10.3,84.2,1016.1,306.7,1.5,2.0,306.8,0.00,7.8,12.4,"22:26:24",1
"20/03/30","22:40",0.0,10.3,84.3,1015.9,300.2,1.3,2.0,315.7,0.00,7.8,12.2,"22:30:56",1
"20/03/30","22:50",0.0,10.2,84.4,1015.6,295.4,1.1,1.7,325.2,0.00,7.7,12.2,"22:43:44",1
"20/03/30","23:00",0.0,10.2,84.5,1016.1,302.2,1.2,1.7,313.7,0.00,7.7,12.2,"22:54:42",1
"20/03/30","23:10",0.0,10.2,84.7,1015.9,318.4,1.2,1.7,320.2,0.00,7.8,12.1,"23:07:20",1
"20/03/30","23:20",0.0,10.1,84.8,1016.1,331.2,1.2,1.8,321.8,0.00,7.7,12.1,"23:14:08",1
"20/03/30","23:30",0.0,10.0,85.1,1016.1,306.8,1.3,1.8,320.7,0.00,7.7,12.1,"23:27:44",1
"20/03/30","23:40",0.0,9.8,85.2,1015.9,309.4,1.1,1.7,315.8,0.00,7.5,12.1,"23:30:40",1
"20/03/30","23:50",0.0,9.7,85.4,1015.9,303.4,1.3,1.7,320.1,0.00,7.4,11.9,"23:48:56",1
"20/03/30","24:00",0.0,9.5,85.7,1015.9,305.2,1.3,1.7,320.0,0.00,7.3,12.0,"23:52:24",1
